Location: CAO
(44.5093°N, 80.3921°W)
Time: 09:53:56
(UTC-05:00)

ARIANE 6 FM1 Upper Stage - Pass Details

Date: 27 January 2026
Orbit: 522 x 609 km, 62.0° (Epoch: 8 February)

Event Time Altitude Azimuth Distance (km) Brightness Sun altitude
Rises 18:57:03 0° 252° (WSW) 2,703 7.9 -16.6°
Reaches altitude 10° 18:59:36 10° 266° (W) 1,799 6.6 -17.1°
Maximum altitude 19:02:56 24° 322° (NW) 1,126 4.5 -17.7°
Enters shadow 19:05:42 13° 13° (NNE) 1,611 4.8 -18.2°
